{"data":{"norad_id":59515,"epoch":"2026-09-21T03:55:55.763904Z","epoch_age_seconds":107504,"freshness":"FRESH","line1":"1 59515U 24073E   26264.16383986  .00000728  00000+0  35968-4 0  9996","line2":"2 59515  43.0025 293.8504 0001339 269.5919  90.4779 15.27581118136071","mean_motion":15.27581118,"eccentricity":0.0001339,"inclination_deg":43.0025,"raan_deg":293.8504,"arg_perigee_deg":269.5919,"mean_anomaly_deg":90.4779,"bstar":3.5968e-5,"rev_number":13607,"period_min":94.266679722078,"perigee_km":482.12703597749,"apogee_km":483.9644607175,"semimajor_km":6861.1827483475,"source":"CELESTRAK","updated_at":"2026-09-22T09:00:48.963017Z"}}